Showing default

ACTS, 22796

Orbit data source: Space-Track

ACTS, 22796 is a payload satellite owned by NASA LeRC (US) in GEO that was launched on Sun, 12 Sep 1993 UTC via an SPACE SHUTTLE launch vehicle from the Air Force Eastern Test Range (AFETR). Payloads include a variety of satellites, spacecraft, and rockets equipped with specific instruments for various scientific and technological missions. These include communications satellites like Starlink; space stations such as the ISS; scientific satellites like the Hubble; Earth observation satellites from companies like Planet Labs, Umbra, and HawkEye 360; GPS; miniature CubeSats for education and research; and military/defense satellites.

Loading next visibility...
ACTS details
Identifier
22796, 1993-058B
Orbit
GEO
Last TLE update9 hours ago
Origin
Flag of USNASA LeRC (US)
ManufacturerMM/East Windsor
MissionNon-operational Civil Communications
Bus & MotorAS4000, Unknown motor
Mass2,770 kg wet, ~1,488 kg dry
Launch date (UTC)
1993-09-12 (31 years ago)
Launch vehicle
SPACE SHUTTLE
Launch site
Air Force Eastern Test Range (AFETR)
Object type
Payload
Rocket body
Debris
Shape & HBRHex Poly + 2 Pan, 2.14 m
Radar Cross Section4.512 m², Large (>1 m²)

Expand to show TLE details & history

TLE from 9 hours ago
0 ACTS
1 22796U 93058B   24337.11993664 -.00000098  00000-0  00000+0 0  9996
2 22796  14.5941 359.8495 0046125  70.3006 299.4486  1.00273347121260
Epoch: 2024-12-02T02:52Z
Definitive object data (Epoch: 2024-12-02T02:52:42.525Z)
Latitude2.33448°
Longitude-105.81045°
Altitude35,690.045 km
Speed3.082 km/s
True Right ascension00h 35m 15s
True Declination2° 19' 56"
Sunlit
Object was in daylight at TLE epoch
Visualization TLE readout
Latitude7.99132°
Longitude32.62688°
Altitude35,737.609 km
Speed3.078 km/s
Apparent Right ascension09h 49m 46s
Apparent Declination2° 45' 57"
Sunlit
Object is in daylight
Visualization observer readout
Local Sidereal Time09:43:11
Azimuth177.279° S
Elevation52.82°
Doppler factor1
Orbital elements
Apogee altitude35,981.615 km
Perigee altitude35,592.641 km
Semi-major axis42,165.265 km
Eccentricity0.0046125
Inclination14.5941°
RAAN359.8495°
Arg. of periapsis70.3006°
True anomaly298.98703°
Mean anomaly299.4486°
Eccentric anomaly299.21795°
Mean motion0.25067 °/min
BSTARUnknown
Orbital period1436.12 mins
Loading historical data...
22796 neighbors
Authenticating...
Loading maneuver chart data...
Loading historical data...
Loading historical data...
Loading historical data...
Loading historical data...
Loading historical data...
Loading historical data...
Loading historical data...

ACTS Visibility forecast

Observer location: undefined°, undefined

Span
Click to sort rows by Start time (UTC) header in descending order
Start Az.
Max El. time (UTC)
Max El. Az.
Max El.
End time (UTC)
End Az.
1440 mins2024-12-02 11:56:23.403Z177.28° S2024-12-03 08:10:23.403Z179.372° S41.006°2024-12-03 11:56:23.403Z177.311° S
|